Regional Weather Roundup
Issued by NWS Grand Forks, ND

Home | Current Version | Previous Version | Text Only | Print | Product List | Glossary On
Versions: 1 2 3 4 5 6 7 8 9 10 11 12 13 14 15 16 17 18 19 20 21 22 23 24 25 26 27 28 29 30 31 32 33 34 35 36 37 38 39 40 41 42 43 44 45 46 47 48 49 50
000
ASUS43 KFGF 300831
RWRFGF
PRAIRIE TO PINES  WEATHER ROUNDUP
NATIONAL WEATHER SERVICE EASTERN NORTH DAKOTA/GRAND FORKS ND
300 AM CDT SUN APR 30 2017

 **SATELLITE DATA USED TO AUGMENT SKY COVER AT AUTOMATED STATIONS**
 *****  WEATHER ACROSS EASTERN NORTH DAKOTA  *****

CITY           SKY/WX    TMP DP  RH WIND       PRES   REMARKS
GRAND FORKS    FAIR      43  34  70 SE3       30.16F
GRAND FRKS AFB FAIR      42  29  60 S3        30.16F
DEVILS LAKE    FAIR      44  26  49 S9        30.16F
FARGO          FAIR      39  30  70 NE3       30.17F
WAHPETON ARPT  FAIR      43  28  56 E5        30.16F
$$

 ***** WEATHER ACROSS CENTRAL AND WESTERN NORTH DAKOTA  *****

CITY           SKY/WX    TMP DP  RH WIND       PRES   REMARKS
BISMARCK       FAIR      37  25  61 CALM      30.16F
MINOT          FAIR      48  21  34 S18       30.10F
JAMESTOWN      FAIR      37  28  70 CALM      30.15F
MINOT AFB      FAIR      44  25  47 S12       30.08F
GARRISON         N/A     37  23  56 CALM      30.12F
WILLISTON      FAIR      35  31  85 CALM      30.06F
DICKINSON      FAIR      31  19  61 S12       30.09F WCI  22
HETTINGER      FAIR      36  20  52 CALM      30.13F
$$

 *****  OTHER AIRPORT OBSERVATIONS IN OUR AREA  *****

CITY           SKY/WX    TMP DP  RH WIND       PRES   REMARKS
WALHALLA       NOT AVBL
GRAFTON AIRPOR FAIR      39  32  75 S5        30.18F
VALLEY CITY AR FAIR      39  25  56 CALM      30.16F
CANDO          NOT AVBL
CAVALIER APRT  FAIR      39  30  70 SW5       30.16F
GWINNER        SUNNY     41  32  70 MISG      30.14F
SHEYENNE NWR     N/A     40  25  55 N3        29.95S
ROLLA          FAIR      36  27  69 SW6       30.13F
 ***** THE ABOVE OBSERVATIONS ARE NON NWS ARE NOT QUALITY
       CONTROLLED AND MAY MIS-REPORT RAIN FOR SNOW...
$$

  *****  WEATHER ACROSS NORTHERN MINNESOTA  *****

CITY           SKY/WX    TMP DP  RH WIND       PRES   REMARKS
FLAG ISLAND    FAIR      41  27  56 SE8       30.20F
WARROAD        FAIR      39  27  60 S6        30.20F
ROSEAU         FAIR      39  27  60 SE7       30.19F
HALLOCK        FAIR      36  28  75 SE8       30.17F
THF RVR FALLS  FAIR      41  25  53 E7        30.20F
BAUDETTE       FAIR      38  19  46 S7        30.22F
WASKISH        FAIR      37  27  65 SE3       30.22F
CROOKSTON      FAIR      45  27  49 SE7       30.18F
STEPHEN NDAWN    N/A     37  28  70 SE6         N/A
GREENBUSH NDAW   N/A     37  30  75 S5          N/A
$$
  *****  WEATHER ACROSS CENTRAL AND WEST MINNESOTA  *****

CITY           SKY/WX    TMP DP  RH WIND       PRES   REMARKS
FOSSTON        FAIR      39  23  52 SE7       30.19F
BEMIDJI        FAIR      38  22  54 E3        30.21F
PARK RAPIDS    FAIR      42  19  39 NE5       30.19F
ELBOW LAKE     FAIR      42  23  47 NE7       30.14F
WADENA         FAIR      37  21  52 E6        30.17F
DETROIT LAKES  FAIR      43  25  49 SE6       30.19F
MOORHEAD       FAIR      37  28  70 E6        30.18F
FERGUS FALLS   FAIR      45  19  36 E5        30.15F
MORRIS MN      FAIR      43  23  45 E12       30.11F
STAPLES        FAIR      37  21  52 E3        30.17F
$$
  *****  WEATHER ELSEWHERE ACROSS MINNESOTA  *****

CITY           SKY/WX    TMP DP  RH WIND       PRES   REMARKS
DULUTH         FAIR      37  14  38 E12       30.21F
INTRNTL FALLS  FAIR      34  21  59 CALM      30.24F
ELY            FAIR      28  25  86 CALM      30.24F
CLOQUET        FAIR      37  12  35 E6        30.20F
WHEATON        FAIR      45  25  45 NE3       30.15F
BRAINERD       FAIR      40  20  44 E5        30.19F
HIBBING        FAIR      32  18  56 E5        30.22F
ALEXANDRIA     FAIR      41  23  48 E12       30.15F
SAINT CLOUD    FAIR      41  23  48 NE9       30.15F
MINNEAPOLIS    CLOUDY    46  25  43 NE15      30.14S
$$

  *****  WEATHER ACROSS SOUTH DAKOTA  *****

CITY           SKY/WX    TMP DP  RH WIND       PRES   REMARKS
SIOUX FALLS    CLOUDY    45  29  53 NE12      30.04F
BROOKINGS      CLOUDY    43  24  47 NE8       30.07F
WATERTOWN      FAIR      39  23  52 NE7       30.10F
HURON          FAIR      40  30  67 N8        30.09F
SISSETON         N/A     40  31  70 N5        30.14S
ABERDEEN       FAIR      34  25  69 NE5       30.15F
MITCHELL       CLOUDY    45  28  51 NE9       30.06F
PIERRE         FAIR      35  23  61 N7        30.11F
MOBRIDGE       FAIR      34  23  64 CALM      30.13F
RAPID CITY     FAIR      30  20  66 NW9       30.12F WCI  22
$$

  *****  SOME WEATHER IN NEARBY STATES *****

CITY           SKY/WX    TMP DP  RH WIND       PRES   REMARKS
GLASGOW MT     FAIR      40  33  76 SE10      30.00F
GREAT FALLS MT FAIR      40  28  62 SW13      29.96F
CHEYENNE WY    FAIR      27  16  63 NW14G22   30.09F WCI  16
SCOTTSBLUFF NE FAIR      34  24  67 N9        30.09F
OMAHA NE       LGT RAIN  40  36  86 N17       29.92F FOG
DES MOINES IA  DRIZZLE   41  38  89 NE14      29.91R
DAVENPORT IA   CLOUDY    44  41  89 E17G29    29.89S
CHICAGO IL     DRIZZLE   43  41  93 NE16      29.94F
EAU CLAIRE WI  CLOUDY    44  26  49 NE9       30.13F
LA CROSSE WI   CLOUDY    46  28  49 NE9       30.07F
$$

  *****  SOME NATIONAL WEATHER *****

CITY           SKY/WX    TMP DP  RH WIND       PRES   REMARKS
LA GUARDIA NY  MOCLDY    65  45  48 N6        30.14R
RALEIGH NC     MOCLDY    72  69  90 SW10      30.15F
ATLANTA GA     FAIR      72  68  87 SE8       30.07F
NEW ORLEANS LA CLOUDY    79  73  82 SE24G35   29.80S
OKLAHOMA CITY  LGT RAIN  47  46  97 SW15      29.66S
ALBUQUERQUE NM CLOUDY    36  35  96 SW5       30.07F
SALT LAKE CITY FAIR      42  29  59 SE7       30.19F
LOS ANGELES CA FAIR      63  45  51 SE9       30.05S
BOISE ID       MOCLDY    50  30  46 SE9       30.12F
SEATTLE WA     CLOUDY    50  49  96 S13       30.11S
$$

*** WEATHER ACROSS MANITOBA...SASKATCHEWAN AND ONTARIO ***
                ***ONTARIO***

CITY           SKY/WX    TMP DP  RH WIND       PRES   REMARKS
GERALDTON      PTCLDY    25  19  80 CALM      30.35F
THUNDER BAY    MOCLDY    27  25  93 SW5       30.30F WCI  21
SIOUX LOOKOUT  MOCLDY    34  18  51 S5        30.25F
TORONTO        CLOUDY    45  30  57 E13G21    30.21S
BIG TROUT LK   CLEAR     28  21  74 VRB2      30.26F
PICKLE LAKE    NOT AVBL
DRYDEN         MOCLDY    37  19  48 S10       30.23F
KENORA         PTCLDY    39  18  41 S7        30.21F
$$
                *** MANITOBA***

CITY           SKY/WX    TMP DP  RH WIND       PRES   REMARKS
BRANDON        PTCLDY    34  27  75 CALM      30.09F
DAUPHIN        CLEAR     34  25  69 SW5       30.09F
ISLAND LAKE    PTCLDY    34  25  69 E7        30.09F
PILOT MOUND      N/A     43  27  52 S13         N/A
THE PAS        CLEAR     34  28  80 SE3       30.05F
THOMPSON       PTCLDY    30  23  74 NE6       30.10F WCI  24
WINNIPEG       MOCLDY    43  25  49 S13       30.15F
LYNN LAKE      CLEAR     28  21  74 VRB2      30.06F
CHURCHILL      CLOUDY    23  18  80 S12       30.13F WCI  12
GILLAM         MOCLDY    28  14  54 SE5       30.16F WCI  23
$$
                ***SASKATCHEWAN***

CITY           SKY/WX    TMP DP  RH WIND       PRES   REMARKS
ESTEVAN        CLEAR     41  36  81 S7        30.04F
KINDERSLEY     PTCLDY    34  32  93 SE8       29.88F
LLOYDMINSTER   CLEAR     36  34  93 S7        29.88F
PRINCE ALBERT  PTCLDY    30  28  93 E7        30.00F WCI  23
REGINA         CLOUDY    43  39  87 SE5       30.00F
YORKTON        CLOUDY    45  30  57 SW6       30.04F
N. BATTLEFORD  PTCLDY    36  30  80 E9        29.92F
LA RONGE       CLEAR     34  25  69 SE8       30.01F
SASKATOON      PTCLDY    41  32  70 CALM      29.97F
SWIFT CURRENT  MOCLDY    43  36  75 S13       29.92F
$$
NOTE: THESE ARE AUTOMATED STATIONS WITH LIMITED QUALITY CONTROL
      "FAIR" INDICATES FEW OR NO CLOUDS BELOW 12,000 FEET WITH NO
      SIGNIFICANT WEATHER AND/OR OBSTRUCTIONS TO VISIBILITY.
      SKY/WX - SKY CONDITION AND SIGNIFICANT WEATHER.
      TMP - AIR TEMPERATURE.    DP   - DEWPOINT TEMPERATURE.
      RH  - RELATIVE HUMIDITY.  PRES - PRESSURE.
      HX  - HEAT INDEX.         WCI  - WIND CHILL INDEX.
$



USA.gov is the U.S. government's official web portal to all federal, state and local government web resources and services.